Wind_Speed
5 6 6 4 4 3 2 2 1 2 1 2 4 2 4 6 4 6 7 6 4 4 4 3 6 6 9 10 12 10 7 1 2 4 3 3 16 24 23 29 33 31 28 25 23 21 21 23 24 25 25 25 25 23 23 23 24 24 23 23 22 23 23 22 23 23 23 22 21 20 18 17 18 18 18 19 19 18 17 17 16 15 15 15 14 14 15 16 15 14 13 13 14 17 18 18 18
5 8 5 4 4 1 1 2 2 1 2 4 4 3 5 3 3 7 8 8 3 2 1 8 11 11 13 12 11 9 10 6 5 5 5 16 23 23 28 34 34 32 29 26 24 22 22 23 24 25 25 25 25 24 23 23 24 23 23 23 22 22 22 21 21 21 21 20 20 19 18 17 17 18 19 20 19 18 17 16 14 14 15 14 14 14 15 15 14 13 11 13 14 17 18 17 17
5 7 2 3 3 1 0 2 2 1 1 5 4 4 4 3 7 9 10 11 6 7 4 6 8 5 7 9 7 7 6 5 9 8 7 20 20 17 30 33 32 32 29 27 24 23 23 23 24 25 25 25 25 24 24 24 24 24 24 22 21 21 20 21 20 20 19 18 18 18 17 17 18 19 19 19 18 17 16 16 14 14 15 15 14 14 15 14 13 11 11 13 15 16 17 17 16
5 5 1 2 2 1 3 2 2 3 4 4 3 5 4 5 10 10 11 13 7 9 4 3 5 5 5 12 8 7 8 4 8 9 7 14 18 23 31 32 31 30 28 27 25 24 24 24 24 24 25 25 25 24 24 24 24 24 23 22 21 21 20 20 20 19 17 17 17 18 18 18 19 18 17 16 16 17 16 16 15 14 14 14 14 14 14 14 12 11 12 14 15 16 16 15 14
6 4 3 1 2 1 2 1 2 3 5 3 3 5 4 4 8 11 10 7 5 9 6 3 3 3 5 8 2 4 8 7 8 10 11 15 26 32 31 30 30 28 26 26 25 25 24 24 24 25 25 25 25 25 24 24 24 24 23 21 21 20 19 19 19 19 17 16 16 17 17 18 18 18 17 16 16 16 16 16 15 14 14 14 14 13 13 13 12 11 12 15 16 16 15 14 13
5 3 2 0 1 1 1 1 2 4 6 3 4 5 3 7 10 12 11 3 4 5 7 6 6 5 4 4 3 4 8 11 9 10 17 23 30 33 31 30 29 25 24 26 26 25 24 24 24 25 25 26 26 25 24 24 24 24 22 21 20 20 19 19 19 18 18 17 16 16 17 17 17 17 16 15 15 14 16 16 15 15 15 14 12 12 12 12 11 11 13 16 16 16 15 13 12
2 1 0 1 1 1 2 3 4 6 5 5 7 8 8 12 12 12 11 2 5 2 6 8 11 10 4 2 3 6 13 16 12 14 24 29 31 32 31 31 28 24 23 27 26 25 25 24 25 26 26 26 26 25 24 24 24 23 22 21 20 19 18 19 19 18 17 17 17 16 16 16 15 15 14 14 14 14 15 15 14 15 15 14 12 12 12 12 11 11 13 15 15 15 14 13 11
2 1 1 3 1 1 2 3 5 5 4 6 8 10 12 13 12 12 11 4 2 1 7 9 10 10 4 4 4 7 19 23 22 26 32 34 33 31 31 32 29 24 23 27 27 26 25 24 25 25 26 26 26 24 24 24 24 23 21 20 19 19 18 18 18 17 17 17 17 17 17 16 15 14 14 13 14 14 15 14 14 14 14 14 13 12 11 10 10 10 11 12 13 14 13 12 11
2 0 0 2 0 1 2 4 5 5 5 6 8 11 12 12 12 12 11 3 3 4 5 6 6 10 5 9 8 6 18 28 32 32 34 35 33 32 32 32 31 25 24 26 26 25 25 25 25 25 26 25 25 24 24 25 24 22 21 20 19 18 17 17 17 17 17 17 17 17 17 16 15 14 14 13 13 13 14 15 15 14 13 13 13 11 9 9 9 9 9 10 12 12 12 11 9
1 1 0 1 1 2 4 4 5 4 6 7 9 12 11 12 14 12 8 4 7 5 3 4 10 12 10 11 7 6 18 31 34 31 32 34 32 32 31 31 30 28 26 26 26 26 25 25 26 26 25 24 24 23 25 26 24 22 20 19 18 17 17 17 17 16 16 16 16 16 15 15 14 14 13 12 12 12 13 14 14 13 12 12 11 10 8 8 8 8 7 8 10 11 11 9 9
2 2 2 1 1 2 5 4 5 5 8 8 10 13 11 14 14 10 6 5 7 8 8 10 13 12 12 8 4 11 23 30 32 30 30 32 32 31 30 29 28 28 28 27 27 26 26 25 25 26 24 24 24 23 25 25 23 22 20 19 18 17 17 17 17 16 15 14 15 15 15 14 13 13 13 12 12 12 12 12 12 12 11 11 10 9 8 8 8 8 8 8 8 9 9 9 9
1 2 2 2 2 4 4 3 6 7 10 9 12 13 9 14 12 8 5 4 7 10 7 6 9 9 11 6 3 12 21 25 29 31 30 32 32 32 31 29 28 28 28 28 27 27 26 25 25 25 24 24 23 23 25 25 23 21 20 19 17 17 16 17 16 15 14 14 14 15 14 13 13 12 12 12 12 12 13 12 12 11 10 10 9 9 8 7 7 7 7 7 7 7 8 8 8
1 2 3 1 3 3 3 3 5 6 9 8 10 11 5 10 8 6 3 5 5 6 3 7 12 8 8 5 5 8 14 22 30 32 33 34 33 33 31 30 29 27 28 28 28 27 26 26 25 24 23 23 23 23 24 23 22 20 19 18 17 16 16 16 15 14 14 13 14 14 13 13 13 11 11 11 12 12 12 13 12 11 10 9 9 8 8 7 6 6 5 5 6 5 6 7 8
3 2 3 1 2 2 3 4 5 4 7 9 8 7 3 2 3 4 8 10 7 4 5 10 14 11 9 6 6 5 9 23 32 34 35 35 34 32 30 30 29 27 27 28 28 27 27 25 25 24 23 23 23 23 22 21 20 19 18 17 16 16 16 15 13 13 13 13 14 14 13 13 12 11 10 10 11 12 12 12 12 12 10 9 8 7 6 6 5 4 4 4 5 4 4 7 7
5 1 3 1 3 3 4 3 4 4 7 10 8 6 5 2 4 7 10 9 6 4 7 7 6 9 9 8 8 7 13 28 34 36 36 35 34 31 28 28 28 27 27 27 27 26 26 25 24 24 24 25 24 23 21 20 19 18 17 16 16 16 15 13 12 12 12 13 13 13 13 12 12 10 9 10 11 11 11 11 11 11 10 9 8 6 5 4 4 3 3 4 4 4 4 6 7
4 2 1 1 3 5 3 3 3 4 6 8 8 5 4 5 5 5 4 10 7 2 4 2 1 6 9 7 13 17 24 34 36 38 35 32 31 29 27 27 27 27 27 26 25 24 25 25 24 24 24 25 24 23 21 19 17 17 16 16 16 16 14 12 11 12 12 13 13 13 12 12 11 10 9 9 10 9 9 9 9 10 9 9 8 6 5 4 4 4 3 3 3 3 4 5 6
2 2 2 2 4 6 3 3 3 4 7 9 10 7 3 3 7 3 3 11 11 5 6 6 5 10 12 13 22 28 31 36 38 35 28 27 28 26 25 25 26 25 25 24 25 24 24 25 24 24 24 25 23 22 20 18 16 16 17 16 16 15 14 13 12 12 13 13 13 13 12 12 11 10 9 9 9 8 8 8 8 9 9 9 9 8 8 7 6 6 5 4 3 4 4 4 3
2 3 4 4 5 6 3 3 5 4 8 10 13 9 2 3 5 2 4 10 11 10 10 12 15 16 19 23 29 30 30 33 35 30 22 22 24 22 21 23 24 23 23 23 24 26 25 25 25 25 25 24 23 21 20 19 17 18 18 17 16 15 14 13 13 13 13 13 13 12 12 12 11 10 9 8 7 8 7 7 7 8 8 9 10 10 10 10 9 9 7 6 5 4 4 4 3
4 3 4 5 8 4 2 4 7 5 7 11 16 11 2 1 4 4 3 7 11 13 9 14 20 17 19 23 25 26 28 27 28 27 21 20 21 21 20 21 22 22 23 24 25 26 26 26 25 26 25 24 23 22 22 20 19 20 19 18 16 16 15 14 13 13 13 13 13 12 12 11 10 9 8 7 7 7 7 7 7 7 8 9 10 9 9 10 10 9 8 7 6 5 4 4 3
4 4 4 7 8 4 4 7 7 6 8 11 15 10 4 4 0 3 6 7 10 13 9 13 18 15 15 16 19 21 22 20 21 23 20 20 20 22 23 22 22 21 23 25 26 26 26 26 25 25 24 24 24 23 23 21 20 20 19 18 16 16 15 14 13 12 13 13 12 11 10 10 10 9 8 8 7 8 7 7 7 6 7 9 9 8 8 9 9 8 7 7 6 5 4 3 4
3 5 5 8 5 5 8 8 7 8 10 9 9 7 7 7 2 5 9 9 6 9 12 17 19 17 17 16 16 17 16 14 15 17 18 20 19 19 20 21 21 22 23 25 25 25 25 25 25 25 24 24 24 24 23 21 21 20 19 17 16 15 14 14 13 13 13 12 12 11 10 10 10 9 8 8 7 7 7 6 6 6 6 7 7 8 8 7 7 7 6 5 5 4 4 5 5
3 4 7 9 5 6 10 8 8 10 11 9 7 6 6 7 2 4 9 9 5 8 13 20 21 18 19 18 15 14 13 11 11 13 16 20 19 18 19 20 22 23 24 24 24 24 24 25 25 25 25 24 24 23 23 21 21 20 19 17 16 15 15 14 13 14 13 12 12 11 11 11 10 9 7 6 6 6 7 7 6 6 6 6 6 6 7 6 6 5 4 3 3 4 5 7 6
4 6 7 10 8 7 9 9 9 10 9 10 9 4 2 6 5 1 5 8 7 10 16 19 18 17 19 18 15 13 12 12 11 12 16 21 20 20 21 21 23 25 24 23 23 23 24 25 25 25 25 25 24 23 23 22 20 19 18 17 16 16 16 15 14 14 12 12 12 11 11 10 9 8 7 6 6 7 7 7 6 6 6 6 5 4 4 5 4 2 1 2 3 5 5 6 5
5 7 9 11 9 8 10 10 11 10 9 10 9 4 2 3 5 2 3 6 10 13 16 17 15 15 19 17 14 13 13 13 12 14 19 23 23 23 23 22 24 26 24 23 23 24 25 25 26 25 25 25 25 24 23 21 19 18 17 17 16 17 16 15 14 13 12 12 12 11 9 9 8 8 8 7 7 7 6 6 5 5 4 4 4 3 2 3 2 1 1 2 3 4 4 4 5
6 8 10 11 9 9 11 10 11 10 8 8 9 8 5 5 2 3 4 9 15 16 17 17 17 16 16 14 14 13 12 11 12 14 17 21 24 24 23 22 24 25 25 25 24 24 25 25 25 25 25 25 25 24 22 20 19 18 17 17 17 17 16 15 15 14 13 12 12 10 8 8 8 8 8 8 7 7 6 5 4 4 3 3 3 3 4 3 2 1 1 2 3 3 3 3 4
6 8 9 10 9 10 10 10 11 9 5 4 5 9 7 5 1 3 5 12 17 17 19 19 19 17 14 13 14 14 13 12 13 16 18 22 26 25 24 24 25 25 26 26 25 25 25 25 25 26 25 25 24 22 21 20 19 18 18 18 18 16 15 15 15 14 13 12 11 10 8 8 8 8 8 8 7 6 5 4 4 5 5 4 4 5 5 4 3 2 2 3 2 2 3 3 4
6 7 8 10 10 9 8 10 13 7 4 6 5 6 8 6 1 2 4 11 18 18 19 19 17 15 13 12 12 12 12 13 16 18 18 21 24 24 24 23 23 24 26 26 25 25 25 25 25 25 25 24 23 21 20 19 19 19 18 18 17 16 15 15 14 14 14 12 12 10 7 8 9 9 9 8 8 6 5 4 4 5 5 4 4 6 6 5 5 4 3 3 2 1 3 3 3
6 8 9 11 10 8 7 8 10 5 4 8 8 6 5 4 1 6 7 9 16 19 18 17 15 13 11 11 10 8 8 13 18 19 17 18 21 23 24 23 24 25 27 26 24 25 25 24 25 24 24 24 23 22 20 19 20 20 19 18 17 16 16 15 14 14 14 13 12 11 9 10 10 9 10 9 8 7 5 4 4 4 4 3 3 3 4 4 4 5 4 2 1 1 2 3 3
6 6 6 10 9 7 7 6 8 6 4 8 8 4 4 1 4 7 11 11 14 18 17 14 13 12 11 11 10 8 8 12 15 16 18 21 24 26 25 23 26 26 26 25 24 25 25 24 25 24 24 24 23 22 21 20 20 20 19 18 17 16 15 14 13 13 13 13 12 10 9 11 11 10 10 9 8 7 5 5 5 5 4 4 3 3 3 3 4 4 3 2 1 2 3 4 4
6 6 3 7 7 6 6 4 6 6 6 8 7 3 6 5 9 8 9 14 15 16 14 12 10 10 10 9 9 8 9 10 12 16 22 26 28 28 25 23 28 28 24 23 23 25 25 25 26 24 23 23 22 21 21 21 20 20 19 18 16 15 14 12 12 12 11 11 11 9 8 9 10 10 10 8 8 7 5 5 6 6 5 4 3 3 3 4 4 4 4 3 2 3 4 5 5
4 6 3 3 3 6 7 3 3 4 5 7 7 4 6 8 11 9 8 14 16 15 13 11 10 9 8 7 9 9 8 8 12 18 24 27 27 26 24 25 28 26 24 23 25 26 24 25 24 22 23 23 22 22 21 20 20 20 19 17 15 13 12 11 11 11 11 10 9 8 8 8 9 10 10 9 8 7 5 5 5 6 6 5 4 4 4 4 4 4 4 3 3 5 6 7 6
1 2 4 3 3 5 7 5 4 5 5 3 7 4 5 7 11 11 7 13 15 14 13 12 11 10 8 6 8 10 8 8 13 18 22 25 26 25 26 28 27 27 26 26 27 25 22 23 23 22 24 24 23 23 22 21 21 20 17 16 14 13 12 10 10 10 10 9 7 7 8 7 8 9 10 9 7 6 5 5 5 6 6 5 4 4 4 4 5 4 3 3 3 6 7 7 7
1 2 4 4 3 4 6 6 5 7 5 1 4 4 3 6 10 12 6 12 14 13 12 12 12 11 9 7 8 10 9 9 11 14 20 24 25 25 26 27 27 28 30 27 25 23 23 24 24 24 26 25 23 23 23 22 21 19 16 15 13 12 12 10 10 10 9 8 6 6 7 7 7 7 9 9 7 5 5 5 6 6 6 5 4 4 4 5 6 5 4 4 3 5 7 7 8
4 1 3 4 4 4 4 6 6 5 5 4 5 4 5 7 8 11 7 11 15 14 14 13 12 11 10 8 9 10 11 11 10 15 23 25 25 27 28 29 29 28 27 26 26 25 26 27 26 25 25 24 22 22 22 21 20 18 15 14 13 12 11 10 10 10 9 7 6 6 6 6 7 7 8 7 6 6 6 7 8 7 6 5 4 5 6 6 6 5 4 5 4 5 6 7 9
3 2 2 4 4 4 5 6 5 3 4 5 6 5 8 11 8 9 8 10 16 16 16 14 13 11 10 9 9 11 12 12 13 17 20 20 24 29 31 31 29 27 25 26 28 28 27 28 28 26 25 24 21 20 20 19 18 17 16 16 14 12 11 11 11 10 9 8 7 7 7 7 8 8 6 5 6 6 6 6 7 6 5 4 4 6 7 6 6 4 4 5 5 5 7 9 11
4 4 3 4 5 5 7 8 5 2 3 6 7 7 10 14 10 10 8 5 13 14 12 11 10 10 10 9 9 11 11 11 12 13 15 19 23 26 28 29 28 27 26 27 28 28 28 29 28 28 28 26 23 21 19 18 18 17 18 18 15 13 12 12 12 10 10 10 8 8 7 7 8 7 5 5 6 5 4 4 4 3 3 3 4 5 7 7 6 5 3 3 4 6 9 12 12
6 6 5 5 5 6 7 8 7 3 3 7 10 10 13 15 12 13 7 6 12 14 12 10 10 11 11 11 12 12 10 10 10 13 18 21 25 26 28 30 29 27 26 26 27 28 26 26 28 30 30 29 28 27 25 23 22 21 21 19 17 15 14 13 12 11 11 10 9 8 6 6 7 6 5 5 5 4 4 4 4 4 3 3 4 5 6 7 6 5 4 2 3 6 10 12 13
7 6 6 7 5 8 10 8 7 3 4 8 10 10 14 15 12 14 8 8 10 16 17 14 13 12 11 13 13 12 10 8 8 12 16 23 27 28 29 30 32 33 32 32 32 31 27 26 29 31 30 30 31 31 30 28 26 25 23 20 19 18 17 15 14 13 12 10 8 6 6 6 7 7 6 5 4 4 3 4 5 5 5 5 6 7 6 6 7 6 4 4 5 7 8 11 14
7 5 5 6 5 7 9 7 6 3 4 8 9 10 14 15 13 14 9 8 8 16 20 18 17 14 12 14 14 14 12 8 7 9 13 22 27 28 29 30 33 36 36 34 33 32 29 28 29 30 31 30 30 31 30 29 27 26 24 21 20 19 18 17 15 14 12 10 8 5 5 6 7 8 8 6 6 5 5 5 6 6 7 7 7 7 5 5 6 5 4 5 7 9 8 10 10
5 5 4 6 6 4 6 5 5 4 4 7 8 8 10 10 8 11 7 5 8 14 20 18 17 17 16 16 15 15 14 11 9 9 10 17 24 26 27 28 29 31 31 31 33 31 29 30 31 32 31 31 30 29 28 27 26 23 21 20 20 19 18 18 17 15 14 12 9 6 6 6 8 9 9 8 7 7 7 6 6 7 8 8 7 6 5 5 4 4 5 5 8 10 10 8 6
5 7 7 8 7 6 7 7 6 7 6 4 4 5 6 5 5 9 4 4 8 11 16 14 11 12 13 13 12 10 11 11 11 11 10 12 17 22 26 28 26 27 30 34 35 32 30 31 33 33 32 31 30 29 27 25 23 21 21 23 23 22 21 21 20 18 16 13 10 7 6 7 8 9 8 7 7 7 7 6 6 7 7 8 7 6 5 5 3 4 4 4 7 9 10 9 7
6 7 10 10 8 7 8 7 5 6 7 3 5 5 5 4 3 8 4 4 9 9 12 14 10 11 12 11 10 9 10 10 10 11 10 11 14 20 25 26 25 26 30 35 35 33 32 32 34 33 32 31 30 28 25 22 22 23 27 29 27 25 23 22 22 20 17 15 12 10 8 9 10 10 8 7 7 6 6 5 5 6 6 7 6 6 6 5 5 5 4 5 6 7 8 10 10
6 6 9 10 6 5 7 6 3 1 4 4 4 6 3 4 2 5 2 6 10 9 9 12 12 12 12 10 10 10 12 10 9 10 10 10 12 17 21 23 25 27 30 33 33 32 31 32 35 33 31 31 30 27 23 22 23 26 29 30 28 26 23 21 21 19 17 16 14 12 12 12 11 10 9 8 7 6 5 5 6 8 8 7 7 7 7 7 6 6 4 5 6 5 6 9 11
6 6 7 6 3 5 6 6 3 2 5 5 3 4 3 2 3 4 2 8 10 10 9 9 10 12 11 11 11 13 14 12 11 11 10 11 14 19 21 22 25 29 31 32 33 32 31 33 35 33 30 31 29 26 23 24 25 27 29 29 27 25 22 22 22 20 18 16 15 13 12 12 9 8 9 9 8 7 6 7 8 10 10 9 8 9 9 8 8 7 6 5 5 5 5 8 11
7 7 7 5 5 7 5 5 5 3 2 6 6 3 3 2 5 3 3 8 9 9 12 12 12 13 13 13 14 15 15 14 14 13 12 13 18 25 29 28 27 31 34 34 35 34 32 33 34 32 32 32 29 26 25 25 26 28 29 29 26 24 23 23 23 21 19 18 16 14 11 10 9 10 11 10 10 9 8 9 10 11 11 10 9 9 9 7 7 8 8 7 7 7 7 7 9
7 6 5 2 3 5 4 5 3 2 1 5 6 2 3 3 6 4 4 4 6 6 8 12 13 13 13 13 15 16 14 13 14 14 13 16 22 25 28 30 30 35 38 38 38 36 33 33 33 32 33 33 29 27 27 27 28 29 30 29 27 25 24 25 24 22 20 19 17 14 11 11 11 11 12 11 10 10 9 10 12 12 11 10 9 9 9 7 7 8 8 8 8 9 9 8 9
4 3 2 2 2 1 2 3 2 2 2 7 7 2 4 1 5 3 1 1 8 9 7 10 12 13 14 13 15 16 14 13 13 12 11 16 22 22 24 26 28 32 35 36 37 36 35 34 32 32 33 32 30 29 29 29 30 30 29 28 28 27 27 28 27 23 21 20 19 17 14 13 13 13 12 11 9 9 10 11 14 13 12 11 11 11 11 10 9 9 9 9 9 9 9 8 10
3 3 2 1 4 4 3 3 3 4 4 7 6 4 6 1 4 4 5 3 10 16 14 15 14 13 14 13 13 14 13 12 11 10 9 11 14 16 19 22 25 29 31 33 34 34 34 33 30 30 32 31 31 30 30 29 30 29 28 28 28 29 29 29 27 24 22 21 21 20 18 16 15 14 14 12 11 9 10 13 15 15 14 14 14 13 13 13 12 11 11 11 10 10 10 10 11
3 1 3 3 2 2 2 3 0 3 4 6 5 4 4 3 4 4 9 7 8 16 16 18 18 16 15 13 13 12 11 12 10 9 9 9 9 12 17 21 24 27 29 31 32 31 32 31 30 30 31 31 31 31 29 29 29 28 28 29 29 29 29 27 26 24 23 22 22 20 17 16 15 15 15 14 12 10 11 13 14 15 15 13 13 14 14 14 13 13 13 12 12 11 11 11 11
3 3 4 4 2 1 1 3 1 1 4 6 4 2 1 2 2 6 10 5 8 14 12 13 15 15 15 13 13 12 11 11 10 10 12 11 10 12 17 20 22 23 25 27 28 29 29 29 30 29 28 29 30 29 28 28 27 26 26 28 29 29 27 26 25 24 23 23 21 19 17 15 13 13 14 14 13 12 12 13 14 15 15 13 13 13 13 13 13 14 14 14 13 12 13 14 13
3 4 5 5 4 4 2 3 2 2 3 4 3 1 1 1 2 7 6 6 8 13 14 13 11 10 11 11 11 12 11 11 10 10 12 12 12 14 16 18 19 20 22 24 25 25 25 26 28 27 26 26 28 27 26 27 25 23 26 29 28 27 26 24 24 23 22 21 19 18 17 15 13 12 13 14 13 13 12 12 13 15 15 13 13 12 12 13 13 15 15 15 14 15 16 17 17
4 2 5 3 5 5 2 2 5 4 1 2 1 1 1 2 1 6 6 10 9 10 13 15 14 11 9 8 9 10 9 10 10 10 10 10 12 14 15 16 17 18 21 21 21 22 21 23 26 25 24 26 27 26 26 26 23 23 26 28 27 26 24 24 23 21 19 19 19 18 17 15 14 14 13 13 12 12 13 13 14 14 15 14 13 12 12 13 14 16 16 16 17 17 18 18 17
2 1 3 4 4 7 3 1 0 3 2 2 0 2 2 2 4 8 7 12 10 9 10 12 13 13 11 9 8 8 8 9 9 8 8 8 11 14 15 16 15 17 20 20 19 19 20 21 23 23 21 23 24 22 23 23 21 22 26 28 27 26 23 22 22 20 18 19 19 18 17 17 17 15 13 12 11 11 13 15 14 15 15 14 13 14 15 16 16 17 17 17 17 17 17 16 15
3 1 4 2 2 4 3 1 2 4 2 4 2 4 1 2 1 6 4 11 8 6 9 9 9 9 8 7 7 7 6 6 6 6 6 7 10 12 12 13 13 13 16 17 16 16 18 19 21 21 19 20 21 20 21 20 18 21 27 28 27 24 21 21 21 19 18 19 20 19 19 19 17 15 13 13 12 12 14 15 15 15 15 14 15 16 17 17 17 18 18 18 17 16 15 14 13
4 3 2 3 2 0 1 2 1 2 2 2 4 2 0 2 3 4 2 9 9 7 8 9 8 7 6 6 7 7 4 4 5 4 4 4 5 7 7 7 6 7 9 11 12 12 14 15 16 16 16 17 18 18 20 19 19 23 27 27 25 21 20 20 19 18 18 19 20 20 20 19 17 15 14 15 15 15 15 15 14 14 14 14 15 16 16 16 16 17 18 17 15 14 14 14 14
2 2 2 2 3 3 2 2 3 3 3 1 2 2 1 1 2 5 4 5 9 10 9 8 7 6 5 6 6 6 4 2 2 3 4 4 4 3 2 2 4 4 6 7 8 8 9 10 12 12 12 14 15 17 19 19 22 26 27 25 22 20 21 20 17 18 18 18 20 21 20 20 18 16 16 17 17 17 16 15 14 14 13 14 15 16 16 16 16 16 17 17 15 14 15 16 15
4 4 3 2 1 2 2 1 2 4 4 3 2 1 3 3 3 3 1 2 2 9 11 8 6 5 4 4 4 4 4 4 5 6 7 7 9 10 10 9 10 9 9 8 7 7 7 8 11 11 11 13 15 17 19 21 25 28 27 24 22 21 21 20 18 18 18 19 21 22 20 19 18 17 18 18 17 17 17 16 16 15 14 15 16 17 17 16 17 17 17 17 16 15 15 14 13
4 2 0 1 2 4 3 1 2 2 4 4 5 3 4 3 3 2 5 6 4 3 7 7 6 6 6 6 6 5 5 6 6 6 6 6 8 12 14 14 14 14 14 13 12 11 9 11 14 14 14 13 13 16 18 21 25 25 23 23 21 20 20 20 20 18 18 21 23 22 20 19 18 18 19 17 16 17 17 16 16 16 15 15 16 17 16 16 17 17 16 15 14 14 13 13 12
Wind_Direction
268 228 222 247 288 321 318 100 67 320 85 248 251 226 257 239 229 275 284 296 316 323 316 62 58 79 108 111 117 99 48 30 188 143 155 128 138 150 162 158 151 150 147 144 149 150 149 145 141 143 145 145 144 142 141 139 137 136 133 129 124 120 120 122 125 125 126 124 121 118 115 113 110 110 111 115 114 110 110 110 109 106 102 98 97 93 95 101 98 97 98 99 102 107 112 114 115
245 222 225 272 303 358 253 103 92 333 55 274 250 187 255 275 242 255 257 252 195 171 285 84 80 84 103 116 119 89 48 31 85 100 100 114 120 135 150 152 150 148 144 143 147 148 149 145 142 144 146 146 146 144 142 141 139 137 134 130 125 123 123 126 129 128 129 128 124 120 119 117 116 115 114 115 114 111 113 113 109 107 105 102 99 96 97 98 96 96 96 99 104 111 117 117 117
218 213 229 321 308 135 57 54 100 121 162 254 254 222 270 304 256 253 247 242 188 167 218 80 78 73 101 92 65 73 85 59 87 95 108 120 116 128 143 146 147 145 142 141 144 147 148 146 144 145 146 147 147 146 144 142 140 138 136 132 129 127 127 129 132 133 132 132 127 124 122 121 121 118 116 116 115 118 119 116 109 106 108 107 103 99 100 98 96 92 93 98 106 114 118 118 117
193 196 264 12 7 46 61 67 144 143 205 239 273 246 237 249 253 260 257 251 200 165 209 57 60 342 66 86 71 84 107 111 105 110 116 123 127 137 140 141 142 140 139 139 142 146 148 147 146 146 147 149 148 147 145 143 141 139 137 134 132 130 130 130 132 134 135 135 132 129 127 127 126 123 122 121 124 126 121 117 113 111 110 111 108 105 103 99 96 90 96 104 111 117 118 118 115
195 206 253 63 77 23 105 143 147 167 217 202 260 249 215 243 269 286 281 258 189 164 163 116 97 340 46 80 95 97 117 134 111 106 105 119 133 138 137 137 137 134 136 137 142 146 148 149 147 148 148 151 150 148 147 145 143 140 138 136 135 133 131 131 130 133 135 137 137 136 133 132 132 130 130 130 130 128 122 120 120 118 116 119 115 111 107 100 99 93 100 109 116 120 119 118 113
208 227 252 266 135 242 125 218 226 224 234 200 252 271 299 304 290 291 293 328 72 136 137 110 110 108 69 53 34 80 136 130 101 108 115 127 136 137 136 135 134 130 134 137 142 146 148 150 148 149 150 152 152 150 149 146 144 141 140 140 139 135 131 130 129 131 133 136 139 140 138 136 136 135 135 134 131 128 126 126 126 120 116 122 117 112 108 103 101 95 104 110 116 122 121 119 114
190 338 216 54 305 311 118 215 234 247 247 214 249 281 294 292 283 289 291 291 75 62 102 112 124 110 72 66 28 57 113 118 113 128 128 132 135 134 136 136 133 129 135 140 143 147 150 151 149 150 152 153 153 151 149 146 144 143 144 144 142 137 132 131 131 133 134 136 139 141 140 138 136 134 133 131 129 128 128 127 129 124 118 118 114 111 111 110 107 97 104 108 114 122 122 119 115
142 5 158 95 351 334 144 238 240 240 242 222 245 264 270 276 283 294 284 246 138 59 102 136 127 95 43 62 58 66 100 114 122 127 128 131 132 133 137 138 134 131 140 143 144 148 151 152 150 150 151 153 153 151 148 146 147 148 148 146 143 138 134 134 134 135 135 135 136 137 138 136 135 132 129 125 123 124 125 123 125 129 126 123 118 115 114 116 111 100 104 109 114 121 122 119 115
140 69 2 99 135 295 254 263 253 244 252 247 254 259 265 274 279 276 267 249 116 101 122 180 115 97 99 79 88 83 97 114 119 122 127 128 133 135 138 141 138 137 142 143 145 149 150 150 149 150 152 154 153 151 149 149 150 150 149 146 143 140 138 137 137 137 136 136 134 135 136 136 134 130 126 122 121 120 122 124 124 129 132 131 126 118 117 117 111 103 102 108 111 115 120 120 117
94 161 162 97 127 284 274 259 254 264 266 259 258 257 260 264 263 252 234 153 130 113 92 98 90 108 118 94 92 102 113 119 117 119 125 130 136 137 138 142 142 143 143 145 147 148 149 150 150 151 152 153 152 151 151 151 152 151 148 146 144 142 141 140 139 139 138 138 136 134 136 135 133 129 124 120 120 118 120 127 128 129 128 131 132 125 123 119 110 106 103 105 107 113 118 118 121
39 263 152 114 115 241 251 256 265 280 280 279 268 256 241 244 255 244 211 134 132 127 120 91 93 113 105 92 88 115 120 117 117 122 129 133 136 135 137 141 145 149 148 147 147 147 148 150 151 151 151 152 152 153 154 154 154 153 149 147 147 146 144 143 142 142 140 140 139 138 138 136 133 129 124 118 117 116 119 128 130 128 123 124 130 128 125 120 112 109 108 108 109 116 116 114 121
78 271 110 138 200 215 231 256 277 289 287 286 276 270 233 222 231 221 193 122 133 136 143 113 123 125 96 98 112 111 109 109 118 126 131 134 135 137 141 146 150 153 150 146 145 146 148 150 152 151 152 152 153 154 157 157 156 153 150 150 150 149 148 146 145 143 140 140 142 144 143 139 135 130 124 116 114 116 117 123 127 125 119 119 123 123 122 122 117 112 111 109 109 112 116 117 122
161 217 104 156 205 207 259 270 281 296 291 281 272 281 242 200 199 195 137 64 100 135 146 131 143 125 92 114 110 103 102 110 119 124 131 134 138 141 144 148 150 150 147 144 144 147 149 151 153 153 153 152 153 156 158 157 155 153 152 153 152 153 151 148 146 143 141 142 147 149 147 143 138 129 122 115 113 114 113 116 120 118 115 114 114 116 120 122 122 119 116 114 110 104 116 126 127
186 206 131 235 263 250 269 257 277 287 283 280 277 299 324 138 143 131 91 53 28 96 107 120 129 104 105 131 114 118 111 116 120 126 133 137 142 141 141 145 145 144 143 145 147 149 150 151 152 151 151 151 153 155 157 157 155 155 155 155 155 156 152 147 145 143 144 145 149 150 147 145 143 134 122 115 113 112 110 112 114 114 113 111 109 111 117 123 130 130 126 120 113 102 118 136 137
183 210 142 238 304 290 247 222 279 274 276 285 289 318 337 355 104 100 101 93 53 86 104 114 121 103 142 160 131 140 122 121 124 131 137 137 137 134 136 139 140 142 144 147 147 149 149 149 150 149 151 151 153 155 156 156 157 158 157 156 156 154 148 145 144 145 148 148 150 150 146 145 146 141 128 118 115 113 114 112 109 109 110 107 107 108 110 117 126 123 124 123 115 105 125 147 147
181 170 139 259 268 271 242 219 275 260 274 285 290 325 351 336 64 91 118 118 102 77 87 114 277 115 147 137 121 129 126 127 131 139 139 130 126 127 133 137 140 142 144 147 146 148 149 150 151 151 153 153 155 155 155 156 157 160 159 158 156 151 146 145 146 149 149 147 150 149 146 147 149 147 136 124 118 117 119 117 109 108 105 97 95 95 92 90 97 97 110 125 127 118 128 146 142
198 168 217 243 246 256 225 212 247 241 283 299 303 337 64 25 52 42 16 92 101 80 55 62 55 95 113 109 119 127 129 132 136 141 134 121 121 126 133 137 140 139 142 146 146 149 151 154 154 154 156 156 155 153 155 156 156 159 160 160 155 150 147 147 151 153 150 149 152 152 151 151 151 149 139 130 126 125 128 126 117 113 105 93 90 92 91 87 85 84 87 100 116 124 129 137 122
193 178 208 221 240 242 170 194 245 262 297 308 311 326 66 90 98 117 30 69 84 74 63 77 79 85 100 111 121 126 131 136 140 139 128 124 128 130 135 140 140 139 142 146 150 154 155 156 158 159 158 159 157 154 155 155 157 162 163 162 155 152 153 153 157 158 157 157 157 156 155 154 151 146 139 135 133 133 136 136 126 116 107 96 94 94 91 85 82 79 79 85 100 124 136 138 111
185 184 193 219 233 232 132 226 256 291 303 307 307 303 310 34 144 160 89 88 89 80 72 90 95 96 100 113 123 130 136 142 145 139 134 137 137 136 140 144 144 143 145 147 153 159 159 160 163 163 161 162 161 157 156 157 161 166 166 163 158 158 158 159 162 163 166 165 161 158 156 153 147 141 138 139 139 139 140 138 127 115 107 98 97 98 91 84 84 85 87 91 98 114 120 121 96
203 190 204 236 238 267 279 260 273 292 286 292 296 296 334 334 25 120 115 116 106 108 115 110 114 117 112 119 128 134 141 150 152 141 139 141 139 142 145 149 148 146 147 149 154 160 163 163 164 165 163 163 162 160 160 161 166 168 168 165 164 164 162 164 166 168 170 167 163 158 153 149 142 137 138 142 144 145 143 139 127 115 107 101 102 105 99 94 97 98 97 97 97 100 90 81 57
226 183 214 245 241 281 268 262 276 274 274 277 289 325 344 316 357 115 131 115 110 139 144 135 133 131 126 131 137 141 144 150 152 142 141 140 137 141 144 147 145 145 148 150 155 160 165 165 165 166 165 165 164 164 163 165 170 169 169 169 170 168 167 171 172 172 170 167 165 159 153 151 147 145 148 149 147 148 146 142 132 123 113 107 110 113 116 116 115 115 107 99 89 80 58 37 24
268 229 233 253 242 262 267 265 261 263 273 276 292 325 312 301 28 141 153 135 168 169 150 143 139 135 135 143 146 145 144 147 150 146 144 140 136 137 139 140 141 146 148 150 156 161 165 167 168 167 167 167 167 168 168 169 172 171 171 173 173 170 175 178 175 175 170 168 170 164 160 159 158 157 159 160 156 155 151 147 141 135 128 121 120 121 131 131 124 124 114 88 51 33 27 17 14
246 267 255 258 247 244 264 267 257 260 273 279 285 275 262 323 356 204 170 150 167 153 145 142 131 131 139 146 149 143 146 150 152 154 148 143 142 143 144 144 146 150 151 152 156 161 166 167 170 170 168 167 169 171 171 172 173 174 175 177 177 175 180 182 177 177 174 174 174 170 168 168 170 170 170 170 167 165 159 152 149 146 140 132 131 134 145 140 127 122 94 34 10 2 8 11 17
213 260 261 261 255 244 252 255 258 260 264 268 271 256 160 318 327 8 82 112 125 131 136 128 117 130 141 146 148 145 151 151 150 154 151 149 148 146 147 150 153 153 153 153 156 163 168 168 170 170 167 168 171 174 174 175 176 178 179 181 182 181 184 183 179 180 181 181 179 176 177 179 182 181 180 175 172 173 167 160 156 155 149 141 146 163 183 160 136 144 296 345 352 354 4 12 19
225 244 257 263 259 251 250 245 249 249 253 260 263 266 230 216 228 91 106 115 122 131 128 122 127 141 146 147 145 144 149 144 141 144 145 147 145 145 151 155 155 155 158 158 158 163 167 167 170 171 168 170 174 177 178 179 180 182 183 184 186 186 186 184 183 187 189 187 184 183 187 195 198 194 190 187 183 179 179 177 174 177 175 173 180 194 213 209 226 285 296 327 340 352 358 0 14
231 236 249 258 261 259 257 252 249 238 233 249 261 272 263 240 199 104 149 138 131 133 132 135 143 149 151 150 149 149 147 143 141 140 140 145 148 151 157 159 158 160 163 163 160 160 165 168 173 174 171 173 177 179 181 181 182 183 182 184 187 188 189 187 188 194 197 194 191 192 201 209 210 204 197 197 194 189 193 199 195 197 197 204 214 214 217 222 239 271 299 315 325 351 0 3 19
246 255 262 257 261 265 260 259 259 250 228 219 216 258 278 290 295 131 187 146 133 133 137 147 149 149 155 155 153 148 144 145 143 139 139 147 153 157 160 160 159 162 166 166 163 160 163 169 174 176 173 175 179 179 180 179 180 181 180 185 190 190 190 190 195 203 206 203 199 203 213 213 210 209 203 201 200 198 201 206 198 193 197 205 214 217 221 230 238 254 275 297 304 8 22 35 47
269 271 283 274 274 278 271 266 260 258 239 210 191 224 268 329 311 177 182 152 137 138 144 155 151 147 157 157 145 132 140 145 142 141 145 153 159 161 162 162 160 163 167 166 164 162 164 170 173 175 174 176 179 178 178 178 179 180 180 185 188 186 188 194 201 208 209 208 208 211 216 213 211 213 211 206 200 197 196 199 194 186 189 191 190 200 211 223 240 253 260 267 270 41 48 70 74
293 283 286 282 292 290 271 268 259 252 235 205 179 235 282 319 246 201 170 157 144 142 150 158 153 149 159 160 142 130 142 144 142 146 152 157 162 164 164 165 163 163 165 165 164 162 166 171 171 172 173 175 177 176 177 178 180 180 180 184 185 183 188 198 204 207 209 212 217 217 214 212 215 221 221 211 197 194 191 183 177 174 177 174 173 187 195 205 225 234 222 214 171 94 86 88 86
310 303 274 282 310 297 261 243 253 249 221 191 163 240 275 256 249 234 172 159 149 147 156 158 155 153 158 162 139 130 143 146 152 155 158 162 164 164 161 162 166 162 157 155 158 164 170 172 168 166 168 173 176 176 177 177 179 181 182 186 187 186 188 194 200 205 211 218 225 226 218 213 217 222 221 211 196 191 187 176 167 160 162 155 155 161 174 192 206 207 192 180 137 103 98 98 99
313 310 304 281 279 277 276 259 261 276 240 173 152 213 250 255 258 248 186 164 156 153 159 157 156 155 159 160 133 129 144 152 160 161 163 165 161 158 155 158 164 157 145 146 159 169 172 166 159 156 162 174 177 175 177 177 179 182 185 189 190 188 189 191 197 206 215 221 230 232 226 221 221 221 217 210 201 188 177 176 169 156 150 140 136 140 158 183 200 200 182 161 139 111 104 105 107
313 293 305 299 238 272 292 277 231 250 269 155 150 212 248 251 257 251 198 166 163 154 156 161 157 157 157 151 133 132 139 147 158 163 165 163 157 153 152 155 156 151 152 161 166 165 164 161 156 157 167 178 179 174 178 180 182 186 188 188 186 186 189 188 190 200 210 215 225 228 224 221 217 215 211 205 198 182 164 167 166 155 149 141 140 146 162 177 183 187 175 164 145 113 106 108 109
319 183 247 273 266 287 302 286 240 211 241 235 180 205 246 252 250 252 212 158 160 150 155 163 156 159 154 149 148 138 138 145 153 165 167 162 157 150 144 145 150 156 162 162 156 155 162 164 161 163 171 181 184 178 177 180 183 187 188 183 181 184 186 182 178 182 190 196 204 206 205 203 197 193 193 192 186 167 155 165 163 156 157 152 147 147 160 162 156 161 161 158 150 118 109 111 115
287 315 243 259 254 263 286 294 283 221 215 243 232 212 230 248 244 245 220 148 149 151 159 166 163 162 153 155 154 141 146 150 158 178 175 163 153 145 139 142 151 155 153 153 157 163 164 164 165 167 172 181 187 181 175 178 181 184 185 181 181 183 182 179 173 172 173 175 180 179 176 179 178 174 176 180 175 158 154 167 167 163 169 165 145 138 151 154 142 142 142 134 139 138 118 113 122
222 256 251 277 278 267 265 272 287 262 242 245 242 238 241 250 248 247 238 152 149 159 164 167 166 156 150 156 151 147 152 156 175 182 167 149 142 141 139 142 146 142 145 157 168 171 167 165 166 166 169 176 182 181 175 176 178 179 180 180 184 183 179 176 169 164 163 161 158 155 158 164 168 169 169 171 175 169 161 167 170 169 174 161 142 145 154 155 149 153 148 122 128 136 119 117 126
216 246 226 248 276 273 260 258 260 223 255 258 237 231 236 242 242 245 251 152 142 154 158 158 154 146 150 154 152 155 155 165 178 157 132 127 130 130 124 125 133 139 151 165 172 177 174 169 165 161 163 169 175 176 175 177 180 180 181 182 187 185 178 173 165 159 158 156 146 137 144 154 155 157 157 164 173 173 164 163 166 163 166 152 142 157 160 155 157 166 167 136 126 128 119 119 127
249 277 268 258 265 269 267 266 269 209 195 252 237 227 234 234 236 238 232 113 126 141 145 155 155 153 158 156 156 156 153 168 156 117 118 124 119 115 110 116 132 141 156 170 176 182 177 169 167 164 164 168 171 174 177 181 180 180 184 184 185 183 179 176 169 160 153 149 140 127 128 138 142 144 146 153 159 161 157 153 154 158 171 164 150 166 167 160 167 170 165 147 121 130 126 125 131
248 260 268 275 265 266 271 267 272 214 177 255 237 220 238 231 227 237 206 122 137 149 153 167 164 159 160 152 150 150 154 164 132 108 123 123 114 114 117 128 142 150 165 179 182 184 180 174 172 170 169 170 173 175 178 180 179 180 182 181 181 182 183 181 173 162 151 145 144 135 134 136 135 140 139 135 141 150 142 132 144 157 165 161 159 171 169 162 171 171 164 148 129 133 132 135 140
242 248 262 274 264 271 279 267 263 201 171 267 241 208 235 231 222 237 211 149 161 163 162 169 163 158 160 153 149 154 158 151 120 111 124 125 121 122 129 140 149 156 170 180 182 184 182 179 177 175 175 175 176 176 176 176 177 179 179 180 182 181 183 183 173 163 156 149 147 146 147 142 132 132 127 118 122 128 123 123 134 143 146 148 158 169 164 155 164 164 160 153 143 138 130 136 146
238 239 250 261 256 267 286 284 287 272 225 246 229 205 233 236 230 247 233 149 163 171 168 167 163 160 160 158 156 157 154 137 121 122 128 132 130 129 135 145 150 155 166 176 182 184 183 181 181 180 179 178 177 174 173 172 172 177 179 179 177 169 167 171 166 163 160 152 148 147 142 135 132 130 122 113 112 110 112 123 130 133 136 142 152 159 154 148 153 162 163 158 152 145 134 133 134
244 228 227 245 249 239 253 278 307 318 297 244 168 179 242 257 231 248 277 105 149 170 164 158 152 149 147 146 144 139 136 132 131 133 138 141 136 134 141 147 150 156 165 176 183 184 184 182 182 183 182 179 176 172 171 172 173 174 169 163 159 152 148 152 153 154 156 152 150 157 158 155 150 141 130 124 120 111 110 116 125 129 130 137 145 146 142 135 137 165 174 169 163 156 148 142 133
259 236 221 221 224 229 251 285 332 354 324 306 111 143 249 299 227 234 289 91 142 164 159 150 139 140 141 134 128 116 114 126 133 133 140 144 135 135 143 150 154 161 170 177 182 185 185 184 182 184 184 178 175 173 172 175 178 172 161 154 151 148 147 150 152 152 155 153 148 149 151 155 155 149 140 133 131 126 117 112 120 126 126 132 138 136 136 134 138 153 162 167 168 168 161 149 145
254 236 210 195 189 235 273 302 340 16 281 282 102 136 221 318 305 225 250 104 135 156 153 146 145 147 144 132 126 120 122 132 131 127 135 139 134 136 144 155 160 165 171 176 182 185 185 184 184 187 185 178 175 174 175 180 180 171 163 159 155 154 152 153 156 154 153 153 150 143 135 136 143 146 144 139 141 145 136 123 121 127 131 134 138 136 132 130 135 143 151 161 166 174 174 159 153
242 235 205 190 202 258 275 290 282 233 264 301 10 104 122 313 273 225 152 98 121 147 146 141 144 141 133 126 124 126 134 137 128 130 144 145 149 154 157 163 166 166 169 175 180 184 184 183 185 188 183 177 177 176 177 180 177 171 166 162 160 159 156 156 159 155 149 151 151 143 135 134 136 140 144 140 137 145 153 146 132 133 135 131 131 135 131 126 127 135 140 148 160 166 175 171 162
239 223 206 211 233 245 255 271 274 281 305 307 316 40 86 273 273 298 52 88 116 146 147 145 144 138 132 127 127 131 136 138 139 150 160 159 168 171 166 164 167 167 169 174 178 184 185 182 184 186 181 178 178 175 175 176 175 173 168 163 160 159 158 159 160 154 150 152 151 148 149 146 137 137 145 143 130 127 144 153 146 142 139 131 129 134 133 128 125 128 133 139 150 156 161 169 163
234 203 197 214 227 242 255 250 256 347 324 263 279 359 83 276 287 330 18 85 130 141 141 145 142 136 133 130 132 138 140 145 154 162 167 172 179 178 166 162 167 170 172 174 177 183 187 185 184 185 181 179 177 174 173 172 173 173 168 164 160 158 159 159 158 155 154 156 154 154 159 160 153 146 148 150 137 125 128 145 151 148 142 133 129 132 134 134 131 127 127 129 135 144 151 159 155
201 150 183 280 292 329 301 257 135 101 256 253 251 198 122 285 293 285 305 149 141 131 130 142 138 131 134 136 140 146 149 156 164 168 176 183 181 175 164 161 168 172 175 176 178 184 188 189 186 183 181 179 174 174 174 172 172 172 169 165 161 158 157 156 156 156 158 158 154 149 147 150 157 160 157 154 147 133 123 134 144 143 135 124 119 125 129 130 128 123 122 122 125 134 142 148 148
146 126 124 280 312 15 13 331 73 130 245 259 237 166 118 149 272 273 294 268 152 144 149 152 144 138 140 142 145 150 154 160 168 172 181 187 179 169 165 167 171 175 178 179 180 185 189 192 189 183 181 179 175 174 175 174 174 173 171 167 162 159 158 157 158 158 160 160 154 147 141 137 142 155 162 157 150 141 126 131 139 134 126 120 117 121 125 127 126 124 124 123 123 126 130 134 138
130 143 90 105 289 355 0 302 198 180 240 256 232 142 114 214 244 306 321 305 166 153 155 153 147 145 146 147 149 153 158 162 170 175 178 185 183 175 175 176 176 178 181 182 182 186 189 192 191 185 182 180 178 177 176 175 174 173 172 169 165 163 161 161 161 159 160 161 158 155 152 144 138 144 155 156 153 148 133 133 141 136 129 125 124 126 127 130 132 130 126 122 122 126 129 132 134
158 180 141 140 180 123 280 270 279 236 239 263 265 154 186 268 303 329 334 341 141 139 131 133 140 145 146 148 150 154 162 166 174 181 178 182 189 187 184 181 179 180 182 183 184 187 188 191 192 188 185 183 182 181 178 175 175 176 176 174 170 167 166 166 164 160 160 162 161 162 163 163 155 147 151 154 154 153 140 134 139 139 136 134 133 134 134 134 136 134 127 120 118 123 126 124 121
201 191 146 149 163 151 209 229 193 229 247 292 310 150 169 165 286 310 350 48 103 120 114 117 128 135 137 142 150 157 167 174 182 188 181 178 186 190 187 182 180 180 182 185 186 188 187 188 188 187 186 186 184 183 180 177 176 178 179 177 175 172 170 167 162 160 163 163 163 163 165 169 170 160 156 156 158 158 149 138 136 140 141 140 140 140 140 141 142 137 128 119 117 122 123 117 112
249 166 109 169 190 156 160 180 172 179 161 336 347 106 327 146 273 327 53 79 77 99 112 123 134 142 143 148 158 164 174 184 187 188 182 177 183 191 190 185 181 179 183 188 187 186 185 184 186 187 187 187 185 183 182 179 177 179 180 178 177 175 169 163 160 160 164 167 166 165 163 162 163 160 156 159 164 164 158 146 136 139 144 145 145 146 144 145 147 142 132 122 119 123 123 117 114
256 102 153 214 181 133 127 246 167 89 118 276 9 104 329 43 17 347 52 87 81 94 113 127 142 152 155 158 166 173 185 192 189 182 176 176 184 191 192 189 183 176 182 190 187 182 181 181 185 186 186 185 184 183 181 178 178 181 180 179 178 172 163 159 159 160 165 169 169 167 162 158 158 161 164 167 169 168 164 154 141 140 146 148 148 145 142 141 143 144 138 128 124 126 125 120 119
127 203 211 205 68 90 111 150 14 51 147 265 10 119 184 78 44 311 49 94 94 107 124 133 146 154 155 159 168 175 183 185 183 176 171 178 189 193 192 193 189 177 178 184 182 178 178 181 186 186 184 182 183 184 180 179 183 183 179 177 174 166 157 155 158 162 167 170 170 167 162 160 159 162 170 175 174 168 162 158 150 145 147 149 148 147 144 144 144 145 143 135 132 135 132 127 127
153 196 190 117 101 278 85 125 130 102 156 283 352 51 51 102 158 250 181 125 127 126 130 142 154 159 156 160 165 163 157 165 172 163 151 159 182 190 191 194 190 170 167 172 171 170 173 178 181 182 181 180 180 180 176 178 186 183 176 172 167 158 152 154 158 164 170 170 169 167 163 162 161 162 169 172 172 167 160 159 157 154 153 154 154 155 155 155 152 149 147 141 138 141 136 131 128
357 22 5 90 138 162 171 152 154 149 151 232 335 26 315 246 214 239 230 149 138 142 145 153 160 163 157 152 152 148 139 139 134 90 65 49 55 79 94 56 57 89 129 148 149 151 160 169 172 172 174 174 175 176 176 179 184 181 174 167 161 154 153 156 161 168 172 170 167 168 166 163 162 163 167 167 168 168 165 164 163 159 158 157 159 161 161 159 153 146 144 142 139 138 133 130 129
7 37 15 331 56 111 144 162 132 130 137 169 168 179 256 268 286 260 222 38 152 155 147 145 144 134 123 110 102 102 84 65 56 56 54 46 45 46 44 47 57 76 95 104 108 117 133 151 153 152 162 172 176 177 178 179 181 178 171 162 157 156 155 159 166 170 172 169 167 169 168 164 163 165 167 169 172 174 171 169 165 162 160 158 158 158 156 154 148 141 140 139 138 137 133 133 135
62 66 69 243 163 125 126 245 285 108 128 161 157 176 257 280 323 356 65 35 319 203 143 131 116 99 90 76 69 68 65 68 70 70 75 76 63 51 49 56 65 72 76 76 81 84 96 126 138 141 152 167 178 181 181 182 179 172 161 155 153 154 155 161 168 170 169 169 169 169 166 163 164 167 170 173 175 174 170 168 166 165 166 164 161 160 159 157 151 147 146 147 148 144 139 139 143
Height
775 777 777 778 777 778 779 780 791 792 794 802 794 791 780 764 762 760 758 755 753 748 738 734 729 727 732 744 751 751 754 757 758 762 769 766 760 764 766 768 770 771 775 778 781 784 784 784 784 785 786 787 789 790 791 792 793 794 795 797 798 799 800 802 802 803 804 804 805 806 807 808 809 810 811 812 813 814 815 815 816 816 817 818 819 819 819 820 820 821 821 822 822 822 822 823 823
775 777 777 778 777 779 781 780 795 801 800 803 791 785 772 761 763 761 758 753 751 746 737 733 731 733 734 738 739 744 756 756 752 754 759 760 761 766 767 769 771 771 775 778 781 784 785 785 785 786 786 788 789 791 792 793 794 795 796 798 799 800 801 803 804 804 805 805 806 807 808 809 810 811 812 813 814 815 816 816 817 817 818 819 820 820 821 821 821 822 822 822 823 823 824 824 824
775 777 777 778 777 778 781 783 798 806 804 800 788 776 765 764 763 756 751 744 741 739 737 734 735 738 738 743 741 747 761 758 751 753 758 760 762 768 769 770 771 773 775 778 782 784 786 787 787 787 787 789 790 791 792 793 794 795 797 798 800 801 802 803 804 805 806 806 807 808 809 810 811 812 813 813 814 815 816 817 818 818 819 820 820 821 822 822 822 823 823 823 824 825 825 825 826
775 777 777 777 779 781 784 790 797 802 802 796 784 769 762 763 756 750 744 737 735 736 738 737 741 740 739 749 748 750 760 758 754 753 758 761 762 767 769 771 773 774 776 778 781 784 786 787 788 788 788 790 791 792 792 793 794 796 798 799 800 802 803 804 805 806 806 807 808 809 810 811 812 812 813 814 815 815 816 817 818 819 819 820 821 822 822 823 824 823 823 824 825 825 826 827 827
776 777 777 777 782 784 786 792 795 797 794 787 779 765 759 757 750 747 738 732 731 734 737 737 746 743 739 747 747 753 759 757 757 753 756 763 763 767 769 772 774 775 778 779 782 784 786 787 788 788 789 790 791 792 792 794 795 797 798 800 801 802 804 805 806 807 808 808 809 810 811 812 812 813 814 814 815 816 817 817 818 819 820 821 822 823 823 824 824 824 824 825 825 826 827 828 828
776 777 777 778 781 781 788 795 795 794 782 776 775 763 758 753 748 745 737 733 731 733 733 734 744 745 748 748 745 751 752 754 758 756 757 763 766 767 770 772 775 777 779 780 782 784 786 788 788 788 789 790 791 792 793 794 796 797 799 800 801 802 804 805 806 807 808 809 809 810 811 812 813 814 814 815 816 816 817 817 818 819 820 821 822 823 824 825 825 825 825 826 826 827 828 829 829
776 778 779 781 782 782 794 799 794 792 777 769 770 761 757 750 744 742 740 739 737 735 732 735 737 745 757 751 750 751 747 751 755 758 759 762 768 768 770 772 775 778 780 781 782 784 786 787 788 789 789 790 791 792 793 795 797 798 799 800 802 803 805 806 807 808 809 809 810 811 812 813 814 814 815 815 816 816 817 818 819 820 821 822 822 824 825 825 825 826 826 827 827 827 828 829 830
776 779 780 785 788 788 795 795 789 787 775 764 762 758 754 748 743 744 743 739 739 738 736 738 732 747 762 752 759 757 748 753 754 760 762 763 768 769 771 772 775 779 781 781 782 785 787 788 788 789 790 791 792 793 795 796 797 798 800 801 802 804 805 806 807 808 809 810 811 812 813 813 814 815 815 816 816 817 817 818 819 820 821 822 823 824 825 826 826 827 827 828 828 828 829 830 831
776 779 781 786 791 792 793 792 785 778 770 763 759 755 751 747 745 744 742 738 737 738 740 737 730 749 764 757 764 759 753 757 757 762 764 766 768 769 772 772 775 778 781 782 783 786 787 789 789 790 791 792 793 794 795 796 798 799 801 802 804 805 806 807 808 809 809 811 812 813 814 814 815 815 816 817 817 818 818 819 819 821 821 822 823 824 826 826 827 828 828 828 829 829 830 830 831
777 780 782 787 792 796 796 791 784 775 767 761 757 752 750 745 742 741 738 737 736 740 742 734 733 749 760 762 766 761 759 759 759 765 766 767 768 770 773 773 776 777 781 782 784 786 787 789 789 791 792 792 794 794 796 796 798 800 802 803 805 806 807 808 808 809 810 811 812 813 815 815 816 816 817 817 818 818 819 820 820 821 822 823 824 825 826 827 828 828 829 829 829 829 830 831 831
781 781 781 790 795 798 796 790 784 775 765 758 752 745 744 740 738 737 732 735 735 740 741 736 744 753 757 764 766 762 761 761 761 765 767 768 770 771 773 775 777 778 780 782 784 786 787 789 790 791 792 793 795 795 797 797 799 800 802 804 805 806 807 808 809 809 810 811 812 814 815 815 817 817 818 818 819 819 820 821 821 822 823 823 825 826 827 828 829 829 830 830 830 830 830 831 831
784 783 783 793 796 794 790 789 784 774 765 758 751 738 733 733 735 734 730 735 737 741 739 736 747 749 759 769 766 764 763 764 763 765 768 768 770 771 773 775 778 779 781 783 785 786 788 790 791 792 793 794 796 797 798 798 800 801 803 804 805 806 807 808 809 810 810 812 813 814 815 816 817 818 819 819 820 820 820 821 822 823 823 824 825 826 827 828 829 830 830 830 830 830 830 831 831
784 783 785 792 789 786 786 786 781 775 768 756 747 733 725 729 731 730 729 735 738 743 738 733 739 743 760 769 765 766 766 767 765 765 767 767 769 770 772 775 778 781 782 784 786 787 788 790 791 793 794 795 797 798 799 800 801 802 803 804 805 806 807 808 809 810 811 812 813 814 815 817 818 819 820 820 821 821 821 822 822 823 824 825 826 827 828 829 830 830 831 831 831 831 831 831 831
780 779 783 789 785 782 782 782 777 777 770 751 741 730 723 726 727 726 729 740 743 741 737 731 733 743 761 767 769 770 767 767 765 766 766 766 768 769 773 776 779 781 783 785 786 788 789 790 792 793 795 796 798 800 801 802 802 803 804 805 806 807 808 809 810 811 812 813 814 815 816 818 819 820 820 821 821 822 822 823 823 823 824 825 827 828 829 829 830 830 831 831 831 831 831 831 831
775 775 779 786 785 783 780 778 775 776 767 747 737 730 726 725 724 728 730 740 745 736 734 734 730 743 759 762 769 769 767 767 765 767 766 766 768 771 776 777 780 782 784 786 787 789 791 792 793 794 795 796 798 800 802 803 804 804 805 806 807 808 809 809 811 812 813 814 814 816 817 819 820 820 821 821 822 823 823 823 823 824 825 826 827 828 829 829 830 830 831 831 831 832 832 831 831
771 773 780 786 787 786 780 774 773 774 763 745 737 730 731 730 725 731 728 729 740 736 734 738 732 739 751 756 761 764 765 765 765 767 766 767 769 773 777 778 781 782 784 786 788 791 792 794 794 795 796 797 799 800 802 804 805 806 806 807 808 809 809 810 811 812 813 814 815 816 818 819 820 821 821 822 823 823 824 824 824 824 825 826 828 828 829 830 830 831 831 831 831 832 832 832 831
769 775 784 788 787 785 778 771 769 768 758 746 740 734 736 738 731 731 727 724 737 741 738 740 736 737 748 755 759 761 764 764 764 766 767 769 770 774 778 779 782 783 786 787 789 791 792 794 794 796 797 798 800 801 803 804 806 807 807 808 809 810 810 811 812 813 814 815 816 817 818 819 820 821 822 823 823 824 824 825 825 825 826 827 828 829 830 830 830 831 831 831 832 832 832 832 832
772 779 785 789 785 778 770 765 761 758 756 749 742 739 738 740 738 733 733 736 739 744 744 741 742 745 751 757 760 762 764 764 763 766 769 769 769 773 777 779 781 783 786 787 789 791 792 794 794 796 797 798 800 801 803 804 806 807 808 809 810 811 811 812 812 813 814 815 817 818 819 820 821 822 823 823 824 825 825 825 825 826 826 827 829 829 830 830 831 831 831 832 832 833 833 833 832
772 776 782 784 774 765 760 758 755 754 757 751 743 740 737 737 737 734 740 749 745 750 754 748 750 756 757 759 762 763 764 765 764 765 768 769 769 771 775 778 781 782 785 787 789 790 791 793 794 796 797 799 800 801 803 804 806 807 808 810 810 811 812 812 813 814 815 816 818 819 820 821 822 823 823 824 825 825 825 826 826 826 827 828 829 830 831 831 831 831 831 832 833 833 833 833 833
767 771 780 775 762 759 756 754 753 753 753 750 745 740 737 734 732 734 743 751 749 753 757 754 757 760 761 762 762 763 765 766 765 765 768 770 770 771 773 776 779 782 785 786 788 790 792 793 795 797 798 799 800 802 803 804 806 807 809 810 811 811 812 813 814 814 815 817 818 819 821 822 823 823 824 825 825 826 826 826 826 827 828 829 830 830 831 831 831 831 832 833 833 833 834 833 833
764 767 773 765 758 761 755 752 752 749 747 748 747 742 739 733 730 735 743 752 756 753 749 749 754 757 760 762 762 763 765 766 767 768 769 770 772 773 774 776 779 782 785 787 788 790 792 794 796 797 798 799 800 802 803 805 806 808 809 810 811 812 813 813 814 815 816 817 819 820 821 822 823 824 825 825 826 826 826 827 827 827 828 829 830 831 831 831 831 832 833 833 834 834 834 834 834
764 763 762 757 757 760 752 750 749 746 744 745 747 744 740 733 731 736 740 749 753 747 742 741 746 751 756 758 759 762 764 766 768 770 770 770 772 774 775 777 779 782 785 787 789 791 793 795 796 797 799 800 802 803 803 805 806 808 810 810 812 812 813 814 814 815 816 818 819 820 821 822 823 824 825 825 826 827 827 827 827 828 829 829 830 830 831 831 832 832 833 833 834 834 834 834 834
767 763 757 754 755 757 751 747 746 744 744 745 744 741 737 734 735 735 735 741 740 737 738 739 743 747 750 753 757 761 764 766 768 770 770 769 771 772 774 776 778 782 785 788 790 792 794 796 797 798 799 801 803 804 804 805 807 809 810 811 812 812 813 814 815 816 817 818 819 820 821 822 823 824 825 825 826 827 827 828 828 829 829 829 830 830 831 831 832 833 833 834 834 834 834 835 834
765 763 756 752 751 753 749 745 744 743 745 743 738 736 736 736 737 735 736 737 735 736 738 740 745 747 749 752 756 760 762 765 767 770 770 769 771 772 774 776 779 782 785 788 790 792 795 796 797 798 800 802 803 804 805 806 807 809 810 811 812 813 814 815 816 816 817 818 819 821 822 823 823 824 825 825 825 826 827 828 828 829 829 830 830 830 831 831 832 833 833 833 834 834 834 835 835
762 761 754 749 749 748 745 743 743 742 742 739 736 736 735 734 734 737 740 738 736 738 740 742 746 748 750 753 756 760 762 765 768 770 771 771 772 774 776 777 780 783 785 787 790 793 795 797 798 799 800 802 803 804 805 806 808 809 810 811 812 813 814 815 816 816 817 818 819 821 822 823 823 823 824 824 825 826 827 827 828 829 829 830 830 830 831 831 832 832 833 833 833 834 834 835 836
757 754 752 748 747 744 742 742 740 740 738 736 739 738 733 731 732 739 741 738 737 738 742 744 746 749 751 753 755 758 761 765 767 770 772 772 772 773 775 777 780 783 785 787 790 793 795 797 798 800 801 802 803 804 805 807 808 809 810 812 813 814 814 815 816 816 817 818 819 820 821 822 822 822 823 824 825 826 826 827 828 828 829 830 830 830 831 831 832 832 832 832 833 834 834 835 836
750 750 749 746 746 742 741 741 737 738 737 735 740 740 735 730 734 745 743 737 737 741 746 746 746 750 751 753 755 758 762 764 766 769 771 772 772 773 775 778 781 783 784 787 791 793 796 798 798 800 801 802 803 804 805 806 808 809 810 812 813 814 814 815 815 816 817 817 818 820 821 821 821 821 822 823 825 826 826 827 827 828 829 829 830 830 831 831 831 831 832 832 833 833 834 835 835
748 749 749 745 744 742 739 740 737 737 737 733 736 738 736 733 736 743 741 739 740 742 748 747 747 750 752 755 757 761 764 765 766 768 769 770 771 773 775 778 780 783 784 787 791 794 796 798 799 800 802 802 803 804 805 807 808 809 810 811 812 813 814 815 815 816 816 817 818 819 820 820 820 821 822 823 824 825 826 826 827 828 828 829 829 830 830 831 831 831 832 832 833 834 834 835 835
748 748 752 747 743 743 739 737 735 736 737 730 732 742 742 739 738 736 735 738 741 744 748 749 748 750 752 755 757 762 765 766 767 767 768 769 769 772 775 778 780 783 785 788 791 794 796 797 799 800 802 803 804 805 805 806 807 809 810 811 812 812 813 814 814 815 816 816 817 818 819 820 820 821 821 822 824 825 826 827 827 827 828 828 829 829 830 830 831 831 832 833 833 834 834 834 835
748 747 752 752 750 747 738 735 733 734 734 725 733 753 752 741 735 732 732 735 741 747 749 750 750 751 753 754 757 761 764 766 766 766 767 766 768 771 775 779 781 783 787 790 793 795 796 797 799 801 804 805 805 805 806 806 807 808 809 810 811 812 813 814 814 815 815 816 816 817 818 819 820 820 821 822 824 825 826 826 827 827 828 828 829 829 829 830 831 832 833 833 834 835 835 835 835
751 752 752 755 759 752 736 733 734 736 733 723 733 754 752 740 733 729 731 733 739 748 750 750 752 752 754 755 758 762 764 766 766 766 765 764 767 772 775 778 781 785 788 790 793 794 796 798 801 803 805 805 804 805 806 806 807 807 808 809 810 812 812 813 814 815 815 815 816 817 817 818 819 820 821 822 824 825 826 826 826 827 828 828 828 829 830 831 831 832 833 834 835 835 835 835 835
753 761 762 758 759 753 738 731 733 736 733 725 735 751 748 739 732 725 728 732 737 745 749 749 751 752 755 758 760 762 764 766 766 766 765 765 768 771 775 778 781 784 785 787 790 793 798 800 801 803 803 802 802 804 806 806 806 807 808 809 810 811 812 813 814 815 815 815 816 816 817 818 819 820 821 822 824 824 825 825 826 827 827 828 829 829 830 831 832 832 833 834 835 835 835 835 836
758 764 767 761 759 757 746 733 729 731 733 731 735 746 746 737 729 723 725 731 736 745 749 749 750 752 755 759 760 760 763 765 766 766 765 765 768 772 776 779 781 782 783 786 790 794 798 799 800 802 802 800 801 804 806 806 806 807 808 809 810 811 812 813 814 814 815 815 816 816 817 818 819 820 821 822 823 824 825 825 826 827 828 828 829 830 830 831 832 833 833 834 835 835 836 836 836
766 766 766 762 760 759 753 741 729 727 733 736 736 740 741 732 725 722 722 728 735 744 748 748 750 752 755 759 759 758 759 762 763 761 761 764 768 772 775 778 780 783 786 789 790 793 795 797 799 800 802 801 801 803 805 806 807 807 809 810 811 812 813 813 814 814 815 815 816 816 817 818 819 820 821 822 822 824 825 826 826 827 828 828 829 829 830 831 832 833 833 834 835 836 836 836 837
768 767 766 764 761 759 757 747 734 730 735 738 739 742 739 730 725 722 720 724 733 740 744 745 748 751 755 758 758 757 757 759 757 756 760 766 769 771 773 776 781 786 789 790 790 791 792 794 797 800 802 801 801 802 804 806 807 808 809 810 811 812 813 813 814 815 815 816 816 817 818 818 819 820 821 821 822 823 825 825 826 826 827 828 829 829 830 831 832 833 833 834 835 836 837 837 837
763 763 764 766 763 758 752 744 735 732 739 740 741 743 738 731 727 723 720 723 731 738 742 746 749 753 757 759 758 757 758 758 757 760 766 770 772 775 776 780 784 787 790 791 790 790 791 792 795 799 801 801 801 802 803 805 807 808 808 809 810 811 812 813 814 815 816 817 817 818 818 819 820 820 821 822 822 823 824 825 825 826 826 827 828 829 830 831 832 833 833 834 835 836 837 838 838
759 761 764 763 763 759 748 741 734 732 741 741 737 739 734 730 727 721 721 725 731 739 745 750 752 753 756 756 756 757 759 760 760 765 769 771 774 777 780 783 786 789 792 793 791 791 791 792 795 798 800 801 802 802 803 805 806 806 807 808 809 809 811 812 813 815 816 817 818 819 819 819 820 820 821 821 822 823 823 824 825 826 827 828 829 830 831 832 832 833 833 833 834 836 837 838 838
760 763 764 764 763 758 745 740 735 731 740 740 734 738 733 726 725 720 721 728 734 737 742 748 750 752 754 754 756 758 759 761 764 768 770 772 775 777 780 782 783 786 788 788 788 789 790 792 794 797 800 802 803 803 804 805 805 806 806 807 808 809 811 812 813 815 816 818 818 819 819 820 820 821 821 822 822 823 823 824 825 826 827 828 829 830 831 831 832 832 832 833 834 835 837 838 838
762 763 766 767 761 755 745 737 733 732 740 738 733 738 731 722 722 718 719 726 732 733 733 739 744 748 752 753 755 757 760 764 766 768 770 772 774 776 780 782 782 783 783 784 786 786 788 791 795 797 799 801 803 804 804 805 806 807 807 808 809 810 811 812 813 815 816 818 819 819 820 820 821 821 822 822 823 823 824 825 826 826 827 828 829 830 830 831 831 831 832 832 833 835 836 838 838
763 763 768 767 758 757 752 739 733 732 735 734 731 735 729 723 723 719 718 723 728 729 728 731 736 740 745 748 750 753 759 766 768 769 771 772 774 776 778 781 782 782 783 784 784 785 787 790 794 796 798 800 801 802 803 805 806 807 808 809 810 810 811 813 814 816 817 818 819 820 820 820 821 822 822 823 823 824 824 825 826 827 827 828 829 829 829 830 830 830 831 832 833 834 835 837 838
761 758 761 761 753 753 750 741 735 731 728 725 730 741 735 727 728 722 719 723 729 731 732 735 739 741 744 748 752 756 761 764 766 769 770 772 774 776 778 779 780 782 782 782 782 784 786 789 792 795 796 798 799 800 802 804 805 806 807 808 810 811 812 813 814 816 818 819 820 820 821 821 822 823 824 824 825 825 825 826 826 827 827 828 828 829 829 829 830 830 831 831 832 833 834 835 836
760 752 749 750 748 747 744 741 741 743 739 725 730 751 747 731 727 724 721 726 733 735 736 740 744 746 749 753 757 760 764 765 766 768 770 772 774 777 779 778 779 781 781 781 782 784 786 788 790 792 793 795 797 799 800 802 803 804 805 806 808 810 812 813 814 816 818 819 820 821 822 822 823 824 825 825 826 826 827 827 827 827 828 828 828 829 829 829 830 831 831 832 832 833 833 834 835
760 746 738 740 741 741 741 741 745 752 747 729 727 745 748 734 725 724 723 727 736 740 741 743 745 748 751 754 759 761 764 766 767 769 771 773 776 778 781 781 779 780 781 782 783 784 786 787 789 789 791 794 796 798 800 801 802 803 804 806 807 809 811 813 814 816 818 819 820 821 822 823 824 825 825 826 827 827 828 828 828 828 829 829 829 829 829 830 831 831 831 832 832 833 833 834 835
754 735 729 735 736 736 737 741 747 748 742 733 727 731 742 740 728 725 726 728 739 744 746 749 749 750 753 755 759 761 763 764 766 769 770 772 775 775 778 780 780 780 780 782 782 784 786 786 788 788 790 793 795 797 799 800 801 802 804 806 808 809 811 813 815 816 818 819 821 822 823 824 824 825 826 827 827 828 829 829 829 830 830 830 830 830 830 830 831 831 832 832 832 833 833 834 834
739 724 725 729 730 732 733 738 745 744 744 743 732 727 744 748 730 724 725 729 744 749 747 751 751 752 755 757 760 761 762 763 763 766 767 768 769 767 767 773 778 779 778 779 780 781 783 785 787 788 790 793 795 797 798 799 801 802 804 806 808 810 811 813 815 817 819 820 821 822 823 824 825 826 826 827 828 828 829 829 830 830 831 831 831 830 831 831 832 832 832 832 833 833 833 834 834
725 720 725 726 728 731 732 739 743 744 751 750 736 730 746 752 733 725 727 729 745 754 750 750 751 753 757 757 760 761 762 762 761 762 763 764 764 763 764 768 773 775 775 776 777 778 781 782 785 787 789 792 794 796 797 799 801 803 805 806 808 810 811 813 816 817 819 820 821 822 823 824 825 826 827 828 829 829 829 829 830 831 831 831 831 831 831 832 832 832 833 833 833 834 834 834 834
719 721 727 731 735 735 735 740 742 751 759 748 736 732 742 753 742 732 732 729 739 752 755 755 754 756 758 757 758 759 760 761 761 762 762 762 762 763 766 768 771 773 774 775 775 776 778 779 782 785 788 791 793 795 797 800 802 803 805 807 808 810 811 813 815 817 819 820 822 823 824 825 826 827 828 829 830 830 830 830 830 831 832 832 832 832 832 833 833 833 833 833 834 834 835 835 835
719 724 731 739 745 744 745 745 746 762 765 744 734 734 740 753 750 739 736 733 736 744 748 753 756 758 759 758 759 759 759 761 761 763 764 765 765 764 766 768 771 773 774 774 774 775 776 777 781 785 789 792 794 796 798 800 802 804 806 808 809 810 812 813 815 817 819 820 822 824 824 825 826 827 828 829 830 830 830 831 831 832 832 832 833 833 834 834 834 834 834 834 835 835 835 835 835
722 728 737 750 757 757 759 758 756 764 758 738 732 735 743 752 749 743 739 734 735 736 736 744 751 754 757 757 758 759 760 761 762 765 766 766 765 764 765 767 769 771 773 774 775 776 777 778 780 784 787 791 794 797 799 800 803 804 806 808 809 811 812 814 815 817 819 821 822 824 825 826 827 828 829 829 830 831 831 832 832 832 832 833 833 834 835 835 835 835 835 836 836 836 836 836 836
726 732 739 752 762 768 771 768 764 762 751 737 733 735 747 756 748 743 741 736 733 733 737 744 749 751 754 755 757 759 760 762 763 763 762 762 762 763 766 767 768 771 774 775 776 778 779 779 781 783 787 791 794 797 799 801 803 805 807 809 810 811 813 814 815 817 819 821 823 824 826 827 828 829 830 830 831 832 832 832 833 833 833 834 834 835 835 836 836 837 837 837 837 837 837 837 838
725 725 731 741 748 757 765 763 761 761 753 744 740 742 755 763 754 745 741 737 735 735 740 748 753 755 756 757 759 760 763 764 763 761 758 756 759 763 766 767 769 772 775 777 778 780 781 782 783 785 788 791 794 797 800 802 804 806 808 810 811 813 814 815 816 818 820 822 824 825 827 828 829 830 831 831 832 832 833 834 834 834 834 834 835 835 836 836 837 837 838 838 838 838 838 839 839
725 722 730 736 732 736 750 757 755 755 754 752 752 756 760 759 753 746 741 741 743 744 747 750 754 757 760 763 764 764 765 764 762 761 758 757 759 764 766 767 770 773 776 778 780 782 783 784 786 788 790 793 795 798 801 803 805 807 809 811 813 814 815 815 817 819 821 823 825 826 828 829 829 830 831 832 833 833 834 835 834 835 835 835 836 836 836 837 837 838 839 839 839 839 839 840 840
726 728 730 727 720 723 741 756 757 754 757 759 762 766 763 758 756 752 748 749 752 754 755 756 757 757 760 764 765 766 766 765 762 759 758 759 761 764 766 768 771 774 777 780 781 783 785 787 789 791 794 796 798 801 803 805 807 809 810 812 814 815 815 816 818 820 822 824 826 827 828 829 829 830 831 832 833 834 835 835 835 836 836 836 837 837 837 838 838 839 839 840 840 840 840 841 841
722 729 723 719 723 725 735 752 761 763 765 764 766 771 769 768 772 767 759 757 760 760 760 762 763 762 763 764 765 766 766 765 763 761 760 762 763 765 767 770 773 776 779 782 784 786 788 790 792 794 797 798 800 803 804 806 808 810 812 813 815 815 815 817 819 821 823 824 826 827 828 829 830 831 832 833 834 834 835 836 836 837 837 837 838 838 838 839 839 840 840 840 841 841 841 841 842
711 717 713 719 733 737 740 751 760 766 772 772 771 773 773 772 775 773 766 762 762 764 765 766 768 767 766 766 764 765 765 765 765 764 765 766 768 770 772 774 778 780 783 786 788 790 792 794 796 797 799 800 802 804 805 807 809 811 813 814 814 814 815 818 820 822 824 825 826 827 828 829 830 831 832 833 834 835 836 836 837 838 838 838 839 839 839 840 840 840 841 841 841 841 841 841 842
708 711 713 718 728 735 740 747 751 757 770 777 774 774 775 772 770 768 766 763 762 763 766 767 768 768 766 765 764 765 766 767 768 769 771 772 774 776 777 780 782 784 786 788 791 793 794 796 798 799 801 802 803 805 805 807 809 811 813 813 814 815 816 819 821 823 824 824 826 827 828 829 830 831 833 833 834 835 836 837 837 838 839 839 840 840 840 841 841 841 841 842 842 842 842 842 842
723 725 727 726 729 733 737 743 745 747 760 772 772 776 779 774 771 768 765 766 765 762 763 766 767 767 766 765 766 767 768 770 772 773 775 776 778 780 782 783 785 786 788 789 791 793 795 796 798 800 802 804 804 805 806 807 809 810 811 812 814 816 817 820 822 824 824 824 826 827 828 830 831 832 833 834 835 836 836 837 838 838 839 840 840 841 841 842 842 842 842 843 843 842 842 842 843
733 735 736 734 733 735 741 749 748 743 751 760 763 774 782 776 773 772 768 771 771 765 762 764 767 768 768 769 769 770 771 772 774 774 774 775 778 781 784 785 787 788 789 790 790 792 793 794 797 799 802 804 805 805 806 807 807 808 810 813 815 817 819 821 823 824 824 824 825 827 828 830 831 832 834 835 836 836 837 838 838 839 839 840 841 841 842 843 843 843 843 843 843 843 843 843 844